Regional Weather Roundup
Issued by NWS

Home | Current Version | Previous Version | Text Only | Print | Product List | Glossary Off
Versions: 1 2 3 4 5 6 7 8 9 10 11 12 13 14 15 16 17 18 19 20 21 22 23 24 25 26 27 28 29 30 31 32 33 34 35 36 37 38 39 40 41 42 43 44 45 46 47 48 49 50

000
ASUS43 KDMX 301607
RWRIA

WEATHER ROUNDUP FOR IOWA
NATIONAL WEATHER SERVICE DES MOINES IA
1100 AM CDT SUN AUG 30 2015

NOTE: "FAIR" INDICATES FEW OR NO CLOUDS BELOW 12,000 FEET WITH NO
SIGNIFICANT WEATHER AND/OR OBSTRUCTIONS TO VISIBILITY.

* - THESE STATIONS ARE NOT NWS STATIONS...THUS NOT UNDER NWS
QUALITY CONTROL.  THEY ALSO DO NOT REPORT WEATHER SUCH
AS PRECIPITATION OR FOG.

IAZ001>003-012>014-020>022-031>034-043>046-301700-
   NORTHWEST IOWA

CITY           SKY/WX    TMP DP  RH WIND       PRES   REMARKS
CARROLL *      PTSUNNY   66  66 100 S8        30.07R
CHEROKEE *     CLOUDY    66  64  94 SW8       30.04S FOG
DENISON *      CLOUDY    64  63  94 S10G17    30.05R FOG
LE MARS *      CLOUDY    64  64 100 S9        30.03S FOG
ORANGE CITY *  CLOUDY    64  63  94 S8        30.02S FOG
SHELDON *      MOSUNNY   68  63  83 S8        30.01S
SPENCER        MOSUNNY   68  61  78 VRB5      30.04S HAZE
STORM LAKE *   PTSUNNY   66  64  94 S9        30.06R
$$

IAZ055>058-069>071-079>083-090>094-301700-
   SOUTHWEST IOWA

CITY           SKY/WX    TMP DP  RH WIND       PRES   REMARKS
ATLANTIC *     CLOUDY    64  64 100 S7        30.09R
AUDUBON *      CLOUDY    66  64  94 S6        30.09R
CLARINDA *     CLOUDY    66  66 100 CALM      30.10R
COUNCIL BLFS * CLOUDY    64  64 100 S9        30.08R FOG
CRESTON *      CLOUDY    68  68 100 S7        30.10S
HARLAN  *      CLOUDY    66 -40   1 S8        30.11R
LAMONI         CLOUDY    69  68  96 CALM      30.09R FOG
RED OAK *      CLOUDY    66  66 100 CALM      30.09R
SHENANDOAH *   CLOUDY    66  64  94 CALM      30.09R
$$

IAZ047>049-059>061-072>074-084-301700-
   CENTRAL IOWA

CITY           SKY/WX    TMP DP  RH WIND       PRES   REMARKS
AMES           CLOUDY    68  65  90 S6        30.08R
ANKENY *       CLOUDY    66  66 100 S7        30.08S
CHARITON *     CLOUDY    68  68 100 SE5       30.10R FOG
DES MOINES     CLOUDY    67  64  90 SE7       30.08R
GRINNELL*      CLOUDY    68  66  94 S8        30.10R FOG
KNOXVILLE *    FOG       66  66 100 CALM      30.09R VSB 0
MARSHALLTOWN   CLOUDY    67  65  93 S5        30.07S
PELLA *        CLOUDY    66  66 100 CALM      30.11R FOG
PERRY *        CLOUDY    66  66 100 S5        30.08R FOG
$$

IAZ004>006-015-016-023>025-035-036-301700-
   NORTH CENTRAL IOWA

CITY           SKY/WX    TMP DP  RH WIND       PRES   REMARKS
ALGONA *       CLOUDY    68  64  88 S10       30.06S
CLARION *      CLOUDY    68  64  88 S7        30.07S
ESTHERVILLE    PTSUNNY   67  62  84 S10       30.04S
FORT DODGE *   CLOUDY    70  63  78 S9        30.07S
MASON CITY     CLOUDY    67  63  87 SW12      30.08S
FOREST CITY *  CLOUDY    64  63  94 SW8       30.06S
IOWA FALLS *   CLOUDY    66  66 100 S5        30.09S
$$

IAZ007>011-017>019-026>030-037>042-050>054-066-301700-
   NORTHEAST IOWA

CITY           SKY/WX    TMP DP  RH WIND       PRES   REMARKS
CEDAR RAPIDS   CLOUDY    69  67  93 S7        30.09R
CHARLES CITY * CLOUDY    66  66 100 SW6       30.09R
CLINTON *      MOSUNNY   68  64  88 CALM      30.12R
DECORAH *      PTSUNNY   66  64  94 VRB6      30.08R
DUBUQUE        CLOUDY    68  61  78 VRB3      30.11R
MONTICELLO *   CLOUDY    70  64  83 SE6       30.10R
OELWEIN *        N/A     70  66  88 VRB5      30.09S
WATERLOO       CLOUDY    69  65  86 S5        30.07R
$$

IAZ064-065-067-068-078-301700-
   EAST CENTRAL IOWA

CITY           SKY/WX    TMP DP  RH WIND       PRES   REMARKS
DAVENPORT      PTSUNNY   69  65  86 CALM      30.11R
IOWA CITY      CLOUDY    69  65  86 SE7       30.11R
MT. PLEASANT * CLOUDY    70  66  88 CALM      30.10S FOG
MUSCATINE *    MOSUNNY   72  64  78 SE6       30.10R
QUAD CITIES    CLOUDY    68  64  87 CALM      30.10R FOG
$$

IAZ062-063-075>077-085>089-095>099-301700-
   SOUTHEAST IOWA

CITY           SKY/WX    TMP DP  RH WIND       PRES   REMARKS
BURLINGTON     CLOUDY    70  69  97 N5        30.09S FOG
FAIRFIELD *    CLOUDY    66  66 100 E5        30.10S FOG
FORT MADISON * CLOUDY    70  70 100 CALM      30.10R FOG
KEOKUK *       CLOUDY    72  70  94 NE3       30.08S FOG
OSKALOOSA *    CLOUDY    66  64  94 SE5       30.10S FOG
CENTERVILLE *  CLOUDY    68  68 100 SE6       30.11S
OTTUMWA        CLOUDY    67  67 100 SE5       30.08S FOG
WASHINGTON *     N/A    N/A N/A N/A MISG        N/A
$$

ABBREVIATIONS USED IN REMARKS
   TC - TEMPERATURES IN CELSIUS
  WCI - WIND CHILL INDEX
   HX - HEAT INDEX
  VSB - VISIBILITY
$$




USA.gov is the U.S. government's official web portal to all federal, state and local government web resources and services.